Fort Smith, AR

8:55 PM CDT on April 26, 2017 (GMT -0500)
Fort Smith Regional

Weather History for KFSM - December, 2012

Change the Weather History Date:

Tuesday, December 18, 2012

  Actual Average Record
Temperature  
Mean Temperature 50 °F 40 °F  
Max Temperature 68 °F 51 °F 74 °F (1889)
Min Temperature 32 °F 31 °F 8 °F (1964)
Degree Days  
Heating Degree Days 15 24  
Month to date heating degree days 245 404  
Since 1 July heating degree days 757 969  
Moisture  
Dew Point 34 °F    
Average Humidity 64    
Maximum Humidity 96    
Minimum Humidity 32    
Precipitation  
Precipitation 0.00 in 0.10 in 2.51 in (1924)
Month to date precipitation 0.46 2.06  
Year to date precipitation 31.65 44.23  
Sea Level Pressure  
Sea Level Pressure 29.82 in    
Wind  
Wind Speed 3 mph (NE)    
Max Wind Speed 9 mph    
Max Gust Speed 12 mph    
Visibility 6 miles    
Events Fog    
T = Trace of Precipitation, MM = Missing Value Source: NWS Daily Summary

Daily Weather History Graph

Daily Weather History Graph

Search for Another Location

Airport or City:

Trip Planner

Search our weather history database for the weather conditions in past years. The results will help you decide how hot, cold, wet, or windy it might be!

Date:

Astronomy

Dec. 18, 2012 Rise Set
Actual Time 7:21 AM CST 5:07 PM CST
Civil Twilight 6:52 AM CST 5:35 PM CST
Nautical Twilight 6:20 AM CST 6:07 PM CST
Astronomical Twilight 5:49 AM CST 6:38 PM CST
Moon 11:12 AM CST (12/18) 11:21 PM CST (12/18)
Length of Visible Light 10h 43m
Length of Day
9h 46m
Waxing Crescent, 35% of the Moon is Illuminated
Dec 18
Waxing Crescent
Dec 19
First Quarter
Dec 28
Full
Jan 4
Last Quarter
Jan 11
New

Hourly Weather History & Observations

Time (CST) Temp. Windchill Dew Point Humidity Pressure Visibility Wind Dir Wind Speed Gust Speed Precip Events Conditions
12:53 AM 36.0 °F - 33.1 °F 89% 29.84 in 6.0 mi Calm Calm - N/A   Clear
1:23 AM 35.6 °F 32.8 °F 33.8 °F 93% 29.83 in 1.5 mi ENE 3.5 mph - N/A   Clear
1:31 AM 35.6 °F - 33.8 °F 93% 29.83 in 0.5 mi Calm Calm - N/A Fog Fog
1:44 AM 33.8 °F 30.8 °F 32.0 °F 93% 29.83 in 1.8 mi NE 3.5 mph - N/A   Clear
1:46 AM 33.8 °F 30.8 °F 32.0 °F 93% 29.83 in 3.0 mi NE 3.5 mph - N/A   Clear
1:53 AM 34.0 °F 31.0 °F 32.0 °F 92% 29.83 in 5.0 mi ENE 3.5 mph - N/A   Clear
2:53 AM 35.1 °F - 32.0 °F 89% 29.83 in 4.0 mi Calm Calm - N/A   Clear
3:53 AM 35.1 °F 31.0 °F 32.0 °F 89% 29.83 in 5.0 mi NE 4.6 mph - N/A   Clear
4:53 AM 34.0 °F - 32.0 °F 92% 29.83 in 3.0 mi Calm Calm - N/A   Clear
5:04 AM 33.8 °F - 30.2 °F 87% 29.82 in 1.8 mi Calm Calm - N/A   Clear
5:23 AM 33.8 °F - 30.2 °F 87% 29.82 in 3.0 mi Calm Calm - N/A   Clear
5:53 AM 34.0 °F 29.8 °F 30.9 °F 89% 29.83 in 4.0 mi NE 4.6 mph - N/A   Clear
6:16 AM 33.8 °F 30.8 °F 30.2 °F 87% 29.82 in 1.5 mi ENE 3.5 mph - N/A   Clear
6:19 AM 33.8 °F 30.8 °F 30.2 °F 87% 29.81 in 0.8 mi ENE 3.5 mph - N/A   Mist
6:41 AM 32.0 °F 27.5 °F 30.2 °F 93% 29.82 in 1.2 mi NE 4.6 mph - N/A   Partly Cloudy
6:44 AM 32.0 °F - 30.2 °F 93% 29.82 in 3.0 mi Calm Calm - N/A   Partly Cloudy
6:53 AM 33.1 °F 28.7 °F 30.9 °F 92% 29.83 in 1.0 mi NE 4.6 mph - N/A   Mist
7:53 AM 34.0 °F 28.8 °F 30.9 °F 89% 29.82 in 3.0 mi ENE 5.8 mph - N/A   Clear
8:53 AM 37.9 °F 32.1 °F 35.1 °F 89% 29.82 in 3.0 mi ENE 8.1 mph - N/A   Clear
9:53 AM 44.1 °F 39.0 °F 37.0 °F 76% 29.84 in 7.0 mi ENE 9.2 mph - N/A   Clear
10:53 AM 50.0 °F - 39.0 °F 66% 29.83 in 9.0 mi NE 4.6 mph - N/A   Unknown
11:53 AM 55.9 °F - 39.9 °F 55% 29.80 in 10.0 mi NNE 4.6 mph - N/A   Clear
12:53 PM 61.0 °F - 37.0 °F 41% 29.78 in 10.0 mi Calm Calm - N/A   Clear
1:53 PM 64.9 °F - 36.0 °F 34% 29.76 in 10.0 mi Calm Calm - N/A   Clear
2:53 PM 66.0 °F - 35.1 °F 32% 29.76 in 10.0 mi Calm Calm - N/A   Clear
3:53 PM 66.0 °F - 36.0 °F 33% 29.77 in 10.0 mi NNE 4.6 mph - N/A   Clear
4:53 PM 62.1 °F - 36.0 °F 38% 29.78 in 10.0 mi Calm Calm - N/A   Clear
5:53 PM 53.1 °F - 36.0 °F 52% 29.80 in 10.0 mi Calm Calm - N/A   Clear
6:53 PM 48.9 °F - 37.0 °F 64% 29.82 in 10.0 mi Calm Calm - N/A   Clear
7:53 PM 50.0 °F - 37.0 °F 61% 29.83 in 10.0 mi Calm Calm - N/A   Clear
8:53 PM 45.0 °F 43.5 °F 36.0 °F 71% 29.84 in 10.0 mi ENE 3.5 mph - N/A   Clear
9:53 PM 46.0 °F 44.8 °F 37.0 °F 71% 29.84 in 10.0 mi NE 3.5 mph - N/A   Clear
10:53 PM 46.0 °F 43.9 °F 37.0 °F 71% 29.83 in 10.0 mi East 4.6 mph - N/A   Clear
11:53 PM 44.1 °F 41.5 °F 36.0 °F 73% 29.83 in 10.0 mi ENE 4.6 mph - N/A   Clear